Regional Weather Roundup
Issued by NWS Little Rock, AR

Home | Current Version | Previous Version | Text Only | Print | Product List | Glossary Off
Versions: 1 2 3 4 5 6 7 8 9 10 11 12 13 14 15 16 17 18 19 20 21 22 23 24 25 26 27 28 29 30 31 32 33 34 35 36 37 38 39 40 41 42 43 44 45 46 47 48

000
ASUS44 KLZK 272005
RWRLZK

WEATHER ROUNDUP FOR ARKANSAS
NATIONAL WEATHER SERVICE LITTLE ROCK AR
200 PM CST FRI FEB 27 2015

NOTE: "FAIR" INDICATES FEW OR NO CLOUDS BELOW 12,000 FEET WITH NO
SIGNIFICANT WEATHER AND/OR OBSTRUCTIONS TO VISIBILITY.

ARZ001-003-010-029-272100-
NORTHWEST ARKANSAS

CITY           SKY/WX    TMP DP  RH WIND       PRES   REMARKS
FAYETTEVILLE   CLOUDY    20   2  45 VRB3      30.52F
FORT SMITH     CLOUDY    24   5  44 CALM      30.57F
HARRISON       CLOUDY    20   2  45 VRB6      30.51S WCI  12
BENTONVILLE    CLOUDY    19   1  45 NE7       30.52F WCI  10
ROGERS         LGT SNOW  18   6  59 NE6       30.52F WCI  10
SILOAM SPGS    CLOUDY    19   0  42 E7        30.53F WCI  10
HIGHFILL       CLOUDY    20   1  43 NE7       30.51F WCI  11
SPRINGDALE     PTSUNNY   19   3  49 CALM      30.53F
$$

ARZ004-005-016-272100-
NORTH CENTRAL ARKANSAS

CITY           SKY/WX    TMP DP  RH WIND       PRES   REMARKS
BATESVILLE     PTSUNNY   27   3  36 E9        30.54F WCI  17
FLIPPIN        CLOUDY    21   1  42 N5        30.55R WCI  15
MTN HOME       CLOUDY    22   1  40 N5        30.53S WCI  16
$$

ARZ040-041-272100-
WEST CENTRAL ARKANSAS

CITY           SKY/WX    TMP DP  RH WIND       PRES   REMARKS
MENA           CLOUDY    30  12  47 NE6       30.49F WCI  24
MOUNT IDA      CLOUDY    28   9  44 CALM      30.49F
$$

ARZ009-017-025-026-028-272100-
NORTHEAST ARKANSAS

CITY           SKY/WX    TMP DP  RH WIND       PRES   REMARKS
CORNING        FAIR      23  10  58 NE12      30.61F WCI  12
JONESBORO      MOSUNNY   24  16  71 NE14      30.57F WCI  12
NEWPORT        MOSUNNY   25  14  62 NE13      30.58F WCI  14
WALNUT RIDGE   MOSUNNY   25  10  54 NE9       30.59F WCI  15
BLYTHEVILLE    PTSUNNY   28  17  63 NE10      30.57F WCI  19
NW BLYTHEVILLE PTSUNNY   27  16  63 NE16      30.58F WCI  14
$$

ARZ022-023-033-042-044-272100-
CENTRAL ARKANSAS

CITY           SKY/WX    TMP DP  RH WIND       PRES   REMARKS
LITTLE ROCK    PTSUNNY   30   8  39 VRB6      30.57R WCI  24
N LITTLE ROCK  PTSUNNY   29  12  48 NE12      30.57R WCI  20
JACKSONVILLE   CLOUDY    29   6  37 VRB3      30.56R
SEARCY         CLOUDY    27  13  55 E13       30.57F WCI  16
HOT SPRINGS    CLOUDY    30   9  41 N5        30.54R WCI  25
RUSSELLVILLE   CLOUDY    28   2  32 CALM      30.56R
CLINTON        FAIR      28   0  29 CALM      30.57R
$$

ARZ036-272100-
EAST ARKANSAS

CITY           SKY/WX    TMP DP  RH WIND       PRES   REMARKS
WEST MEMPHIS   SUNNY     31  17  56 E5        30.53F WCI  26
$$

ARZ050-053-066-070-073-272100-
SOUTHWEST ARKANSAS

CITY           SKY/WX    TMP DP  RH WIND       PRES   REMARKS
ARKADELPHIA    FAIR      32  14  47 NW9       30.56R WCI  24
CAMDEN         MOSUNNY   36  16  44 MISG      30.53R
TEXARKANA      CLOUDY    29  16  58 NE9       30.51F WCI  20
EL DORADO      CLOUDY    33  19  56 NE7       30.50R WCI  27
DE QUEEN       CLOUDY    31  11  43 NE8       30.50F WCI  23
$$

ARZ056-057-069-272100-
SOUTHEAST ARKANSAS

CITY           SKY/WX    TMP DP  RH WIND       PRES   REMARKS
PINE BLUFF     PTSUNNY   27  17  66 NE8       30.54R WCI  19
STUTTGART      PTSUNNY   28  18  64 NE8       30.54S WCI  20
MONTICELLO     SUNNY     34  20  56 NE10      30.48F WCI  26

$$




USA.gov is the U.S. government's official web portal to all federal, state and local government web resources and services.